Weather in Rodionovka

Russia / Amur Oblast     50°01′08″N   129°46′13″E
temp.,
°C
wind,
m/s
gust,
m/s
humid.,
%
clouds,
%
prec.,
mm/h
press.,
hPa
HPBL,
m
27 february, sat
sat2700:00−22e1297100 0.0 103520
03:00−22se2296100 0.0 103322
06:00−20se3692100 0.0 1031136
09:00−16se41081100 0.0 1027317
12:00−10sse91579100 0.0 1021600
15:00−8sse91678100 0.0 1015775
18:00−10sse91882100 0.1 1014582
21:00−10sse71494100 2.1 1014468
28 february, sun
sun2800:00−10ssw3696100 1.2 1015174
03:00−11nw71287100 1.3 1018511
06:00−18nw5118770 0.0 1023266
09:00−17nw6118246 0.0 1026518
12:00−15nw69810 0.0 1028576
15:00−15nw610760 0.0 1028810
18:00−19nw35850 0.0 103082
21:00−21nw48860 0.0 1033145
1 march, mon
mon100:00−23nw47900 0.0 1034125
03:00−25nw34870 0.0 103666
06:00−28nw23870 0.0 103621
09:00−24wsw11857 0.0 103785
12:00−18sw2374100 0.0 1034492
15:00−16w4684100 0.1 1033994
18:00−21nw349182 0.1 103376
21:00−24n228741 0.1 103520
2 march, tue
tue200:00−27sw12870 0.0 103520
03:00−25sse129050 0.0 103419
06:00−26se2298100 0.1 103430
09:00−23s3696100 0.1 1033250
12:00−18s3489100 0.1 1030426
15:00−15ssw2381100 0.1 1028602
18:00−17se239597 0.1 102741
21:00−17se239899 0.1 102764
3 march, wed
wed300:00−17sse3797100 0.1 1025173
03:00−18sse3894100 0.1 1023186
06:00−17sse51094100 0.1 1021307
09:00−15sse61183100 0.2 1018418
12:00−12sse71185100 0.0 1014539
15:00−10sse71288100 0.1 1011654
18:00−12sse71493100 0.3 1010525
21:00−13s51095100 0.8 1010325